Time,TemperatureF,DewpointF,PressureIn,WindDirection,WindDirectionDegrees,WindSpeedMPH,WindSpeedGustMPH,Humidity,HourlyPrecipIn,Conditions,Clouds,dailyrainin,SoftwareType,DateUTC
2013-01-18 00:01:00,47.8,42.3,29.06,SSE,158,0.0,0.0,81,0.00,CLR,CLR,0.00,WeatherDisplay:10.37,2013-01-18 06:01:00,
2013-01-18 00:06:00,46.6,41.1,29.06,SSE,158,0.0,0.0,81,0.00,CLR,CLR,0.00,WeatherDisplay:10.37,2013-01-18 06:06:00,
2013-01-18 00:11:00,46.0,40.5,29.06,SSE,158,0.0,0.0,81,0.00,CLR,CLR,0.00,WeatherDisplay:10.37,2013-01-18 06:11:00,
2013-01-18 00:16:00,45.1,39.7,29.03,SSE,158,0.0,0.0,81,0.00,CLR,CLR,0.00,WeatherDisplay:10.37,2013-01-18 06:16:00,
2013-01-18 00:21:00,44.6,39.1,29.03,SSE,158,0.0,0.0,81,0.00,CLR,CLR,0.00,WeatherDisplay:10.37,2013-01-18 06:21:00,
2013-01-18 00:26:00,44.2,39.1,29.03,SSE,158,0.0,0.0,82,0.00,CLR,CLR,0.00,WeatherDisplay:10.37,2013-01-18 06:26:00,
2013-01-18 00:31:00,44.2,39.1,29.03,SSE,158,0.0,0.0,82,0.00,CLR,CLR,0.00,WeatherDisplay:10.37,2013-01-18 06:31:00,
2013-01-18 00:36:00,44.1,38.9,29.03,SSE,158,0.0,0.0,82,0.00,CLR,CLR,0.00,WeatherDisplay:10.37,2013-01-18 06:36:00,
2013-01-18 00:41:00,44.4,39.3,29.03,SSE,158,0.0,0.0,82,0.00,CLR,CLR,0.00,WeatherDisplay:10.37,2013-01-18 06:41:00,
2013-01-18 00:46:00,44.6,39.4,29.03,SSE,158,0.0,0.0,82,0.00,CLR,CLR,0.00,WeatherDisplay:10.37,2013-01-18 06:46:00,
2013-01-18 00:52:00,44.8,39.6,29.03,SSE,158,0.0,0.0,82,0.00,CLR,CLR,0.00,WeatherDisplay:10.37,2013-01-18 06:52:00,
2013-01-18 00:57:00,44.4,39.3,29.03,SSE,158,0.0,0.0,82,0.00,CLR,CLR,0.00,WeatherDisplay:10.37,2013-01-18 06:57:00,
2013-01-18 01:02:00,44.4,39.3,29.03,SSE,158,0.0,0.0,82,0.00,CLR,CLR,0.00,WeatherDisplay:10.37,2013-01-18 07:02:00,
2013-01-18 01:07:00,44.4,39.3,29.03,SSE,158,0.0,0.0,82,0.00,CLR,CLR,0.00,WeatherDisplay:10.37,2013-01-18 07:07:00,
2013-01-18 01:12:00,44.2,38.8,29.03,SSE,158,0.0,0.0,81,0.00,CLR,CLR,0.00,WeatherDisplay:10.37,2013-01-18 07:12:00,
2013-01-18 01:17:00,43.9,38.4,29.03,SSE,158,0.0,0.0,81,0.00,CLR,CLR,0.00,WeatherDisplay:10.37,2013-01-18 07:17:00,
2013-01-18 01:22:00,43.0,36.9,29.03,SSE,158,0.0,0.0,79,0.00,CLR,CLR,0.00,WeatherDisplay:10.37,2013-01-18 07:22:00,
2013-01-18 01:27:00,41.9,35.9,29.03,South,180,0.0,0.0,79,0.00,CLR,CLR,0.00,WeatherDisplay:10.37,2013-01-18 07:27:00,
2013-01-18 01:32:00,41.0,34.7,29.03,South,180,0.0,0.0,78,0.00,CLR,CLR,0.00,WeatherDisplay:10.37,2013-01-18 07:32:00,
2013-01-18 01:37:00,39.9,33.3,29.03,South,180,0.0,0.0,77,0.00,CLR,CLR,0.00,WeatherDisplay:10.37,2013-01-18 07:37:00,
2013-01-18 01:42:00,39.0,32.4,29.03,South,180,0.0,0.0,77,0.00,CLR,CLR,0.00,WeatherDisplay:10.37,2013-01-18 07:42:00,
2013-01-18 01:47:00,38.3,31.4,29.03,South,180,0.0,0.0,76,0.00,CLR,CLR,0.00,WeatherDisplay:10.37,2013-01-18 07:47:00,
2013-01-18 01:52:00,38.1,30.9,29.03,South,180,0.0,0.0,75,0.00,CLR,CLR,0.00,WeatherDisplay:10.37,2013-01-18 07:52:00,
2013-01-18 01:57:00,37.6,30.4,29.03,South,180,0.0,0.0,75,0.00,CLR,CLR,0.00,WeatherDisplay:10.37,2013-01-18 07:57:00,
2013-01-18 02:02:00,37.4,30.2,29.00,South,180,0.0,0.0,75,0.00,CLR,CLR,0.00,WeatherDisplay:10.37,2013-01-18 08:02:00,
2013-01-18 02:07:00,37.4,29.9,29.00,South,180,0.0,0.0,74,0.00,CLR,CLR,0.00,WeatherDisplay:10.37,2013-01-18 08:07:00,
2013-01-18 02:12:00,37.0,29.5,29.00,South,180,0.0,0.0,74,0.00,CLR,CLR,0.00,WeatherDisplay:10.37,2013-01-18 08:12:00,
2013-01-18 02:17:00,36.9,29.0,29.00,South,180,0.0,0.0,73,0.00,CLR,CLR,0.00,WeatherDisplay:10.37,2013-01-18 08:17:00,
2013-01-18 02:22:00,36.7,28.8,29.00,South,180,0.0,0.0,73,0.00,CLR,CLR,0.00,WeatherDisplay:10.37,2013-01-18 08:22:00,
2013-01-18 02:27:00,36.5,28.3,29.00,South,180,0.0,0.0,72,0.00,CLR,CLR,0.00,WeatherDisplay:10.37,2013-01-18 08:27:00,
2013-01-18 02:32:00,36.1,28.0,29.00,South,180,0.0,0.0,72,0.00,CLR,CLR,0.00,WeatherDisplay:10.37,2013-01-18 08:32:00,
2013-01-18 02:38:00,36.0,27.8,29.00,South,180,0.0,0.0,72,0.00,CLR,CLR,0.00,WeatherDisplay:10.37,2013-01-18 08:38:00,
2013-01-18 02:43:00,36.0,27.8,29.00,South,180,0.0,0.0,72,0.00,CLR,CLR,0.00,WeatherDisplay:10.37,2013-01-18 08:43:00,
2013-01-18 02:48:00,36.0,27.8,29.00,South,180,0.0,0.0,72,0.00,CLR,CLR,0.00,WeatherDisplay:10.37,2013-01-18 08:48:00,
2013-01-18 02:53:00,36.3,28.2,29.00,South,180,0.0,0.0,72,0.00,CLR,CLR,0.00,WeatherDisplay:10.37,2013-01-18 08:53:00,
2013-01-18 02:58:00,36.3,28.2,29.00,South,180,0.0,0.0,72,0.00,CLR,CLR,0.00,WeatherDisplay:10.37,2013-01-18 08:58:00,
2013-01-18 03:03:00,36.5,28.0,29.00,South,180,0.0,0.0,71,0.00,CLR,CLR,0.00,WeatherDisplay:10.37,2013-01-18 09:03:00,
2013-01-18 03:08:00,36.1,26.6,29.00,South,180,2.3,0.0,68,0.00,CLR,CLR,0.00,WeatherDisplay:10.37,2013-01-18 09:08:00,
2013-01-18 03:13:00,35.8,25.5,29.00,South,180,0.0,0.0,66,0.00,CLR,CLR,0.00,WeatherDisplay:10.37,2013-01-18 09:13:00,
2013-01-18 03:18:00,35.6,25.0,29.00,South,180,0.0,0.0,65,0.00,CLR,CLR,0.00,WeatherDisplay:10.37,2013-01-18 09:18:00,
2013-01-18 03:23:00,35.2,24.6,29.00,SSW,202,0.0,0.0,65,0.00,CLR,CLR,0.00,WeatherDisplay:10.37,2013-01-18 09:23:00,
2013-01-18 03:28:00,35.2,24.3,29.00,SSW,202,0.0,0.0,64,0.00,CLR,CLR,0.00,WeatherDisplay:10.37,2013-01-18 09:28:00,
2013-01-18 03:33:00,35.1,23.7,29.00,SSW,202,3.5,0.0,63,0.00,CLR,CLR,0.00,WeatherDisplay:10.37,2013-01-18 09:33:00,
2013-01-18 03:38:00,35.1,23.7,29.00,South,180,2.6,0.0,63,0.00,CLR,CLR,0.00,WeatherDisplay:10.37,2013-01-18 09:38:00,
2013-01-18 03:43:00,35.2,23.5,29.00,South,180,0.0,0.0,62,0.00,CLR,CLR,0.00,WeatherDisplay:10.37,2013-01-18 09:43:00,
2013-01-18 03:48:00,35.2,23.5,29.00,South,180,0.0,0.0,62,0.00,CLR,CLR,0.00,WeatherDisplay:10.37,2013-01-18 09:48:00,
2013-01-18 03:53:00,35.2,23.1,29.00,South,180,0.0,0.0,61,0.00,CLR,CLR,0.00,WeatherDisplay:10.37,2013-01-18 09:53:00,
2013-01-18 03:58:00,35.4,22.9,29.00,South,180,0.0,0.0,60,0.00,CLR,CLR,0.00,WeatherDisplay:10.37,2013-01-18 09:58:00,
2013-01-18 04:03:00,35.6,22.7,28.97,South,180,3.5,0.0,59,0.00,CLR,CLR,0.00,WeatherDisplay:10.37,2013-01-18 10:03:00,
2013-01-18 04:08:00,35.6,22.3,28.97,SSE,158,0.0,0.0,58,0.00,CLR,CLR,0.00,WeatherDisplay:10.37,2013-01-18 10:08:00,
2013-01-18 04:13:00,35.6,21.9,28.97,SSE,158,0.0,0.0,57,0.00,CLR,CLR,0.00,WeatherDisplay:10.37,2013-01-18 10:13:00,
2013-01-18 04:18:00,35.6,21.4,28.97,South,180,0.0,0.0,56,0.00,CLR,CLR,0.00,WeatherDisplay:10.37,2013-01-18 10:18:00,
2013-01-18 04:23:00,35.6,21.4,28.97,South,180,2.3,0.0,56,0.00,CLR,CLR,0.00,WeatherDisplay:10.37,2013-01-18 10:23:00,
2013-01-18 04:28:00,35.6,21.4,28.97,South,180,0.0,0.0,56,0.00,CLR,CLR,0.00,WeatherDisplay:10.37,2013-01-18 10:28:00,
2013-01-18 04:33:00,35.4,21.3,28.94,SSE,158,2.6,0.0,56,0.00,CLR,CLR,0.00,WeatherDisplay:10.37,2013-01-18 10:33:00,
2013-01-18 04:38:00,35.4,21.3,28.94,South,180,4.6,0.0,56,0.00,CLR,CLR,0.00,WeatherDisplay:10.37,2013-01-18 10:38:00,
2013-01-18 04:43:00,35.2,21.1,28.94,SSW,202,2.2,0.0,56,0.00,CLR,CLR,0.00,WeatherDisplay:10.37,2013-01-18 10:43:00,
2013-01-18 04:48:00,35.2,21.1,28.94,SSE,158,3.6,0.0,56,0.00,CLR,CLR,0.00,WeatherDisplay:10.37,2013-01-18 10:48:00,
2013-01-18 04:53:00,35.1,21.3,28.94,South,180,3.6,0.0,57,0.00,CLR,CLR,0.00,WeatherDisplay:10.37,2013-01-18 10:53:00,
2013-01-18 04:58:00,35.1,20.9,28.94,South,180,2.6,0.0,56,0.00,CLR,CLR,0.00,WeatherDisplay:10.37,2013-01-18 10:58:00,
2013-01-18 05:03:00,35.1,20.9,28.94,South,180,0.0,0.0,56,0.00,CLR,CLR,0.00,WeatherDisplay:10.37,2013-01-18 11:03:00,
2013-01-18 05:08:00,35.1,21.3,28.94,South,180,0.0,0.0,57,0.00,CLR,CLR,0.00,WeatherDisplay:10.37,2013-01-18 11:08:00,
2013-01-18 05:13:00,34.9,21.2,28.94,South,180,4.0,0.0,57,0.00,CLR,CLR,0.00,WeatherDisplay:10.37,2013-01-18 11:13:00,
2013-01-18 05:18:00,34.9,21.2,28.91,South,180,3.1,0.0,57,0.00,CLR,CLR,0.00,WeatherDisplay:10.37,2013-01-18 11:18:00,
2013-01-18 05:23:00,35.1,21.3,28.91,South,180,0.0,0.0,57,0.00,CLR,CLR,0.00,WeatherDisplay:10.37,2013-01-18 11:23:00,
2013-01-18 05:28:00,35.1,21.3,28.91,SSW,202,0.0,0.0,57,0.00,CLR,CLR,0.00,WeatherDisplay:10.37,2013-01-18 11:28:00,
2013-01-18 05:33:00,35.1,21.3,28.91,South,180,0.0,0.0,57,0.00,CLR,CLR,0.00,WeatherDisplay:10.37,2013-01-18 11:33:00,
2013-01-18 05:38:00,35.2,21.5,28.91,South,180,0.0,0.0,57,0.00,CLR,CLR,0.00,WeatherDisplay:10.37,2013-01-18 11:38:00,
2013-01-18 05:43:00,35.4,21.3,28.91,SSE,158,0.0,0.0,56,0.00,CLR,CLR,0.00,WeatherDisplay:10.37,2013-01-18 11:43:00,
2013-01-18 05:48:00,35.6,21.4,28.91,South,180,4.9,4.9,56,0.00,CLR,CLR,0.00,WeatherDisplay:10.37,2013-01-18 11:48:00,
2013-01-18 05:53:00,35.8,21.2,28.91,SSE,158,0.0,0.0,55,0.00,CLR,CLR,0.00,WeatherDisplay:10.37,2013-01-18 11:53:00,
2013-01-18 05:58:00,36.0,20.9,28.91,South,180,3.6,0.0,54,0.00,CLR,CLR,0.00,WeatherDisplay:10.37,2013-01-18 11:58:00,
2013-01-18 06:03:00,36.3,21.2,28.88,South,180,4.6,0.0,54,0.00,CLR,CLR,0.00,WeatherDisplay:10.37,2013-01-18 12:03:00,
2013-01-18 06:08:00,36.3,20.8,28.88,SSW,202,3.5,3.5,53,0.00,CLR,CLR,0.00,WeatherDisplay:10.37,2013-01-18 12:08:00,
2013-01-18 06:13:00,36.0,20.9,28.88,SSW,202,3.5,0.0,54,0.00,CLR,CLR,0.00,WeatherDisplay:10.37,2013-01-18 12:13:00,
2013-01-18 06:18:00,36.0,20.9,28.88,South,180,2.3,0.0,54,0.00,CLR,CLR,0.00,WeatherDisplay:10.37,2013-01-18 12:18:00,
2013-01-18 06:23:00,36.0,20.9,28.88,South,180,4.6,0.0,54,0.00,CLR,CLR,0.00,WeatherDisplay:10.37,2013-01-18 12:23:00,
2013-01-18 06:28:00,35.8,20.7,28.88,SSW,202,0.0,0.0,54,0.00,CLR,CLR,0.00,WeatherDisplay:10.37,2013-01-18 12:28:00,
2013-01-18 06:33:00,35.8,20.7,28.88,SSW,202,4.9,0.0,54,0.00,CLR,CLR,0.00,WeatherDisplay:10.37,2013-01-18 12:33:00,
2013-01-18 06:38:00,35.8,21.2,28.88,South,180,6.2,0.0,55,0.00,CLR,CLR,0.00,WeatherDisplay:10.37,2013-01-18 12:38:00,
2013-01-18 06:43:00,35.8,21.2,28.88,South,180,4.9,4.9,55,0.00,CLR,CLR,0.00,WeatherDisplay:10.37,2013-01-18 12:43:00,
2013-01-18 06:48:00,35.6,21.4,28.88,ESE,112,3.6,0.0,56,0.00,CLR,CLR,0.00,WeatherDisplay:10.37,2013-01-18 12:48:00,
2013-01-18 06:53:00,35.6,21.4,28.88,South,180,4.9,4.9,56,0.00,CLR,CLR,0.00,WeatherDisplay:10.37,2013-01-18 12:53:00,
2013-01-18 06:58:00,35.6,21.4,28.88,South,180,3.1,0.0,56,0.00,CLR,CLR,0.00,WeatherDisplay:10.37,2013-01-18 12:58:00,
2013-01-18 07:03:00,35.6,21.9,28.85,SSW,202,3.6,3.6,57,0.00,CLR,CLR,0.00,WeatherDisplay:10.37,2013-01-18 13:03:00,
2013-01-18 07:08:00,35.6,21.9,28.85,South,180,5.8,5.8,57,0.00,CLR,CLR,0.00,WeatherDisplay:10.37,2013-01-18 13:08:00,
2013-01-18 07:13:00,35.6,21.9,28.85,South,180,6.2,6.2,57,0.00,CLR,CLR,0.00,WeatherDisplay:10.37,2013-01-18 13:13:00,
2013-01-18 07:18:00,35.6,22.3,28.85,South,180,6.2,0.0,58,0.00,CLR,CLR,0.00,WeatherDisplay:10.37,2013-01-18 13:18:00,
2013-01-18 07:23:00,35.6,22.3,28.85,SSE,158,3.6,0.0,58,0.00,CLR,CLR,0.00,WeatherDisplay:10.37,2013-01-18 13:23:00,
2013-01-18 07:28:00,35.6,22.3,28.85,SSW,202,3.6,3.6,58,0.00,CLR,CLR,0.00,WeatherDisplay:10.37,2013-01-18 13:28:00,
2013-01-18 07:33:00,35.8,22.4,28.85,South,180,4.6,0.0,58,0.00,CLR,CLR,0.00,WeatherDisplay:10.37,2013-01-18 13:33:00,
2013-01-18 07:38:00,36.0,22.6,28.85,South,180,5.8,5.8,58,0.00,CLR,CLR,0.00,WeatherDisplay:10.37,2013-01-18 13:38:00,
2013-01-18 07:43:00,36.1,22.4,28.85,South,180,5.8,0.0,57,0.00,CLR,CLR,0.00,WeatherDisplay:10.37,2013-01-18 13:43:00,
2013-01-18 07:49:00,36.5,22.3,28.85,SSE,158,6.2,6.2,56,0.00,CLR,CLR,0.00,WeatherDisplay:10.37,2013-01-18 13:49:00,
2013-01-18 07:54:00,36.7,22.4,28.85,SSE,158,5.9,5.9,56,0.00,CLR,CLR,0.00,WeatherDisplay:10.37,2013-01-18 13:54:00,
2013-01-18 07:59:00,36.7,22.4,28.82,SSE,158,5.8,5.8,56,0.00,CLR,CLR,0.00,WeatherDisplay:10.37,2013-01-18 13:59:00,
2013-01-18 08:04:00,36.7,22.0,28.82,SSW,202,12.8,12.8,55,0.00,CLR,CLR,0.00,WeatherDisplay:10.37,2013-01-18 14:04:00,
2013-01-18 08:09:00,36.9,22.2,28.82,SSE,158,12.3,12.3,55,0.00,CLR,CLR,0.00,WeatherDisplay:10.37,2013-01-18 14:09:00,
2013-01-18 08:14:00,36.9,22.2,28.82,SSW,202,10.5,10.5,55,0.00,CLR,CLR,0.00,WeatherDisplay:10.37,2013-01-18 14:14:00,
2013-01-18 08:19:00,36.9,22.2,28.82,SSW,202,9.2,9.2,55,0.00,CLR,CLR,0.00,WeatherDisplay:10.37,2013-01-18 14:19:00,
2013-01-18 08:24:00,37.0,22.4,28.82,SSW,202,4.6,4.6,55,0.00,CLR,CLR,0.00,WeatherDisplay:10.37,2013-01-18 14:24:00,
2013-01-18 08:29:00,37.2,22.5,28.85,SW,225,15.0,15.0,55,0.00,CLR,CLR,0.00,WeatherDisplay:10.37,2013-01-18 14:29:00,
2013-01-18 08:34:00,37.2,22.5,28.85,SSW,202,4.9,4.9,55,0.00,CLR,CLR,0.00,WeatherDisplay:10.37,2013-01-18 14:34:00,
2013-01-18 08:39:00,37.4,22.3,28.85,SSW,202,5.9,5.9,54,0.00,CLR,CLR,0.00,WeatherDisplay:10.37,2013-01-18 14:39:00,
2013-01-18 08:44:00,37.6,22.4,28.85,South,180,4.9,4.9,54,0.00,CLR,CLR,0.00,WeatherDisplay:10.37,2013-01-18 14:44:00,
2013-01-18 08:49:00,37.8,22.6,28.85,SSW,202,5.4,5.4,54,0.00,CLR,CLR,0.00,WeatherDisplay:10.37,2013-01-18 14:49:00,
2013-01-18 08:54:00,38.1,22.5,28.85,SSW,202,7.1,7.1,53,0.00,CLR,CLR,0.00,WeatherDisplay:10.37,2013-01-18 14:54:00,
2013-01-18 08:59:00,38.5,22.4,28.85,SSW,202,8.1,8.1,52,0.00,CLR,CLR,0.00,WeatherDisplay:10.37,2013-01-18 14:59:00,
2013-01-18 09:04:00,38.8,22.7,28.85,SSW,202,8.1,8.1,52,0.00,CLR,CLR,0.00,WeatherDisplay:10.37,2013-01-18 15:04:00,
2013-01-18 09:09:00,39.2,22.1,28.85,SSW,202,7.6,7.6,50,0.00,CLR,CLR,0.00,WeatherDisplay:10.37,2013-01-18 15:09:00,
2013-01-18 09:14:00,39.4,22.3,28.85,South,180,6.9,6.9,50,0.00,CLR,CLR,0.00,WeatherDisplay:10.37,2013-01-18 15:14:00,
2013-01-18 09:19:00,39.6,22.4,28.85,SSW,202,12.8,12.8,50,0.00,CLR,CLR,0.00,WeatherDisplay:10.37,2013-01-18 15:19:00,
2013-01-18 09:24:00,39.7,22.1,28.85,SSW,202,12.7,12.7,49,0.00,CLR,CLR,0.00,WeatherDisplay:10.37,2013-01-18 15:24:00,
2013-01-18 09:29:00,40.1,22.4,28.85,SSW,202,8.3,8.3,49,0.00,CLR,CLR,0.00,WeatherDisplay:10.37,2013-01-18 15:29:00,
2013-01-18 09:34:00,40.3,22.6,28.85,South,180,13.7,13.7,49,0.00,CLR,CLR,0.00,WeatherDisplay:10.37,2013-01-18 15:34:00,
2013-01-18 09:39:00,40.5,22.8,28.85,South,180,10.5,10.5,49,0.00,CLR,CLR,0.00,WeatherDisplay:10.37,2013-01-18 15:39:00,
2013-01-18 09:44:00,40.5,22.3,28.85,South,180,17.3,17.3,48,0.00,CLR,CLR,0.00,WeatherDisplay:10.37,2013-01-18 15:44:00,
2013-01-18 09:49:00,41.0,22.3,28.85,South,180,6.2,6.2,47,0.00,CLR,CLR,0.00,WeatherDisplay:10.37,2013-01-18 15:49:00,
2013-01-18 09:55:00,41.2,21.9,28.85,SSW,202,15.0,15.0,46,0.00,CLR,CLR,0.00,WeatherDisplay:10.37,2013-01-18 15:55:00,
2013-01-18 10:00:00,41.5,22.3,28.85,SSW,202,9.2,9.2,46,0.00,CLR,CLR,0.00,WeatherDisplay:10.37,2013-01-18 16:00:00,
2013-01-18 10:06:00,41.7,21.9,28.85,South,180,13.8,13.8,45,0.00,CLR,CLR,0.00,WeatherDisplay:10.37,2013-01-18 16:06:00,
2013-01-18 10:11:00,42.1,22.2,28.85,SSW,202,9.2,9.2,45,0.00,CLR,CLR,0.00,WeatherDisplay:10.37,2013-01-18 16:11:00,
2013-01-18 10:16:00,42.4,22.0,28.85,SSW,202,12.8,12.8,44,0.00,CLR,CLR,0.00,WeatherDisplay:10.37,2013-01-18 16:16:00,
2013-01-18 10:21:00,42.4,22.0,28.85,SSW,202,16.1,16.1,44,0.00,CLR,CLR,0.00,WeatherDisplay:10.37,2013-01-18 16:21:00,
2013-01-18 10:26:00,43.0,22.0,28.85,SW,225,15.4,15.4,43,0.00,CLR,CLR,0.00,WeatherDisplay:10.37,2013-01-18 16:26:00,
2013-01-18 10:31:00,43.2,21.6,28.85,South,180,12.7,12.7,42,0.00,CLR,CLR,0.00,WeatherDisplay:10.37,2013-01-18 16:31:00,
2013-01-18 10:36:00,43.2,21.6,28.85,South,180,13.2,13.2,42,0.00,CLR,CLR,0.00,WeatherDisplay:10.37,2013-01-18 16:36:00,
2013-01-18 10:41:00,43.5,21.9,28.85,SSW,202,11.5,11.5,42,0.00,CLR,CLR,0.00,WeatherDisplay:10.37,2013-01-18 16:41:00,
2013-01-18 10:46:00,44.2,22.0,28.82,SSW,202,10.4,10.4,41,0.00,CLR,CLR,0.00,WeatherDisplay:10.37,2013-01-18 16:46:00,
2013-01-18 10:51:00,44.1,21.8,28.82,SSW,202,15.0,15.0,41,0.00,CLR,CLR,0.00,WeatherDisplay:10.37,2013-01-18 16:51:00,
2013-01-18 10:56:00,44.6,22.3,28.82,SSE,158,6.2,6.2,41,0.00,CLR,CLR,0.00,WeatherDisplay:10.37,2013-01-18 16:56:00,
2013-01-18 11:01:00,44.2,22.0,28.82,South,180,10.5,10.5,41,0.00,CLR,CLR,0.00,WeatherDisplay:10.37,2013-01-18 17:01:00,
2013-01-18 11:06:00,44.6,21.7,28.82,SSW,202,11.5,11.5,40,0.00,CLR,CLR,0.00,WeatherDisplay:10.37,2013-01-18 17:06:00,
2013-01-18 11:11:00,44.8,21.9,28.82,SSW,202,17.3,17.3,40,0.00,CLR,CLR,0.00,WeatherDisplay:10.37,2013-01-18 17:11:00,
2013-01-18 11:16:00,45.0,22.1,28.82,SW,225,14.0,14.0,40,0.00,CLR,CLR,0.00,WeatherDisplay:10.37,2013-01-18 17:16:00,
2013-01-18 11:21:00,45.3,22.4,28.82,South,180,11.8,11.8,40,0.00,CLR,CLR,0.00,WeatherDisplay:10.37,2013-01-18 17:21:00,
2013-01-18 11:26:00,45.9,22.9,28.82,South,180,15.0,15.0,40,0.00,CLR,CLR,0.00,WeatherDisplay:10.37,2013-01-18 17:26:00,
2013-01-18 11:31:00,46.2,22.6,28.79,SSW,202,8.3,8.3,39,0.00,CLR,CLR,0.00,WeatherDisplay:10.37,2013-01-18 17:31:00,
2013-01-18 11:36:00,46.4,22.1,28.79,SSW,202,15.0,15.0,38,0.00,CLR,CLR,0.00,WeatherDisplay:10.37,2013-01-18 17:36:00,
2013-01-18 11:41:00,46.0,22.4,28.79,SSW,202,12.8,12.8,39,0.00,CLR,CLR,0.00,WeatherDisplay:10.37,2013-01-18 17:41:00,
2013-01-18 11:46:00,46.6,22.3,28.79,SSW,202,14.0,14.0,38,0.00,CLR,CLR,0.00,WeatherDisplay:10.37,2013-01-18 17:46:00,
2013-01-18 11:51:00,46.8,22.5,28.79,South,180,10.5,10.5,38,0.00,CLR,CLR,0.00,WeatherDisplay:10.37,2013-01-18 17:51:00,
2013-01-18 11:56:00,47.5,23.1,28.79,SW,225,15.4,15.4,38,0.00,CLR,CLR,0.00,WeatherDisplay:10.37,2013-01-18 17:56:00,
2013-01-18 12:01:00,47.3,22.3,28.79,South,180,11.5,11.5,37,0.00,CLR,CLR,0.00,WeatherDisplay:10.37,2013-01-18 18:01:00,
2013-01-18 12:06:00,48.0,23.0,28.79,South,180,15.0,15.0,37,0.00,CLR,CLR,0.00,WeatherDisplay:10.37,2013-01-18 18:06:00,
2013-01-18 12:11:00,47.5,22.5,28.79,SSW,202,15.0,15.0,37,0.00,CLR,CLR,0.00,WeatherDisplay:10.37,2013-01-18 18:11:00,
2013-01-18 12:16:00,48.2,23.1,28.79,SSW,202,5.9,7.1,37,0.00,CLR,CLR,0.00,WeatherDisplay:10.37,2013-01-18 18:16:00,
2013-01-18 12:21:00,48.0,23.0,28.79,SSW,202,9.7,9.7,37,0.00,CLR,CLR,0.00,WeatherDisplay:10.37,2013-01-18 18:21:00,
2013-01-18 12:26:00,48.6,22.8,28.79,SSW,202,15.0,15.0,36,0.00,CLR,CLR,0.00,WeatherDisplay:10.37,2013-01-18 18:26:00,
2013-01-18 12:31:00,48.4,23.3,28.76,South,180,8.3,8.3,37,0.00,CLR,CLR,0.00,WeatherDisplay:10.37,2013-01-18 18:31:00,
2013-01-18 12:36:00,48.4,22.6,28.76,SSW,202,12.7,12.7,36,0.00,CLR,CLR,0.00,WeatherDisplay:10.37,2013-01-18 18:36:00,
2013-01-18 12:41:00,48.7,22.9,28.76,South,180,8.3,8.3,36,0.00,CLR,CLR,0.00,WeatherDisplay:10.37,2013-01-18 18:41:00,
2013-01-18 12:46:00,48.7,22.9,28.76,South,180,9.2,9.2,36,0.00,CLR,CLR,0.00,WeatherDisplay:10.37,2013-01-18 18:46:00,
2013-01-18 12:51:00,48.7,22.9,28.76,South,180,9.2,9.2,36,0.00,CLR,CLR,0.00,WeatherDisplay:10.37,2013-01-18 18:51:00,
2013-01-18 12:56:00,48.9,23.1,28.76,SSW,202,15.0,15.0,36,0.00,CLR,CLR,0.00,WeatherDisplay:10.37,2013-01-18 18:56:00,
2013-01-18 13:02:00,48.9,23.1,28.76,SW,225,8.3,8.3,36,0.00,CLR,CLR,0.00,WeatherDisplay:10.37,2013-01-18 19:02:00,
2013-01-18 13:07:00,49.1,23.3,28.76,SSW,202,9.2,9.2,36,0.00,CLR,CLR,0.00,WeatherDisplay:10.37,2013-01-18 19:07:00,
2013-01-18 13:12:00,49.1,23.3,28.76,SSW,202,10.9,10.9,36,0.00,CLR,CLR,0.00,WeatherDisplay:10.37,2013-01-18 19:12:00,
2013-01-18 13:17:00,49.3,23.4,28.76,SSW,202,9.7,9.7,36,0.00,CLR,CLR,0.00,WeatherDisplay:10.37,2013-01-18 19:17:00,
2013-01-18 13:22:00,49.6,23.7,28.76,SSW,202,4.6,4.6,36,0.00,CLR,CLR,0.00,WeatherDisplay:10.37,2013-01-18 19:22:00,
2013-01-18 13:27:00,49.6,23.7,28.76,SW,225,6.7,6.7,36,0.00,CLR,CLR,0.00,WeatherDisplay:10.37,2013-01-18 19:27:00,
2013-01-18 13:32:00,50.4,23.7,28.76,SSW,202,6.2,0.0,35,0.00,CLR,CLR,0.00,WeatherDisplay:10.37,2013-01-18 19:32:00,
2013-01-18 13:37:00,50.2,22.9,28.76,South,180,12.7,12.7,34,0.00,CLR,CLR,0.00,WeatherDisplay:10.37,2013-01-18 19:37:00,
2013-01-18 13:42:00,50.7,24.0,28.76,SW,225,4.6,0.0,35,0.00,CLR,CLR,0.00,WeatherDisplay:10.37,2013-01-18 19:42:00,
2013-01-18 13:47:00,50.7,23.3,28.76,SSE,158,8.3,8.3,34,0.00,CLR,CLR,0.00,WeatherDisplay:10.37,2013-01-18 19:47:00,
2013-01-18 13:52:00,50.4,23.0,28.76,SW,225,12.7,12.7,34,0.00,CLR,CLR,0.00,WeatherDisplay:10.37,2013-01-18 19:52:00,
2013-01-18 13:57:00,51.1,23.7,28.76,SSW,202,4.6,4.6,34,0.00,CLR,CLR,0.00,WeatherDisplay:10.37,2013-01-18 19:57:00,
2013-01-18 14:02:00,51.3,23.1,28.76,South,180,11.5,11.5,33,0.00,CLR,CLR,0.00,WeatherDisplay:10.37,2013-01-18 20:02:00,
2013-01-18 14:07:00,51.1,22.9,28.76,SW,225,11.5,11.5,33,0.00,CLR,CLR,0.00,WeatherDisplay:10.37,2013-01-18 20:07:00,
2013-01-18 14:12:00,51.6,22.7,28.76,SSW,202,9.2,9.2,32,0.00,CLR,CLR,0.00,WeatherDisplay:10.37,2013-01-18 20:12:00,
2013-01-18 14:17:00,51.4,22.5,28.76,South,180,9.2,9.2,32,0.00,CLR,CLR,0.00,WeatherDisplay:10.37,2013-01-18 20:17:00,
2013-01-18 14:22:00,51.3,22.4,28.76,SSE,158,12.7,12.7,32,0.00,CLR,CLR,0.00,WeatherDisplay:10.37,2013-01-18 20:22:00,
2013-01-18 14:27:00,51.6,21.9,28.76,South,180,12.3,12.3,31,0.00,CLR,CLR,0.00,WeatherDisplay:10.37,2013-01-18 20:27:00,
2013-01-18 14:32:00,51.6,21.9,28.76,SW,225,8.3,8.3,31,0.00,CLR,CLR,0.00,WeatherDisplay:10.37,2013-01-18 20:32:00,
2013-01-18 14:37:00,52.0,22.2,28.76,SSW,202,11.4,11.4,31,0.00,CLR,CLR,0.00,WeatherDisplay:10.37,2013-01-18 20:37:00,
2013-01-18 14:42:00,51.6,21.9,28.76,SSW,202,15.0,15.0,31,0.00,CLR,CLR,0.00,WeatherDisplay:10.37,2013-01-18 20:42:00,
2013-01-18 14:47:00,51.1,21.5,28.76,SSW,202,15.4,15.4,31,0.00,CLR,CLR,0.00,WeatherDisplay:10.37,2013-01-18 20:47:00,
2013-01-18 14:52:00,51.4,22.5,28.76,SW,225,6.9,6.9,32,0.00,CLR,CLR,0.00,WeatherDisplay:10.37,2013-01-18 20:52:00,
2013-01-18 14:57:00,51.6,21.9,28.76,SW,225,10.0,10.0,31,0.00,CLR,CLR,0.00,WeatherDisplay:10.37,2013-01-18 20:57:00,
2013-01-18 15:02:00,51.8,22.1,28.76,SSW,202,12.7,12.7,31,0.00,CLR,CLR,0.00,WeatherDisplay:10.37,2013-01-18 21:02:00,
2013-01-18 15:07:00,51.8,22.1,28.76,SSW,202,11.4,11.4,31,0.00,CLR,CLR,0.00,WeatherDisplay:10.37,2013-01-18 21:07:00,
2013-01-18 15:12:00,51.6,22.7,28.76,South,180,4.6,4.6,32,0.00,CLR,CLR,0.00,WeatherDisplay:10.37,2013-01-18 21:12:00,
2013-01-18 15:17:00,51.6,22.7,28.76,South,180,9.2,9.2,32,0.00,CLR,CLR,0.00,WeatherDisplay:10.37,2013-01-18 21:17:00,
2013-01-18 15:22:00,52.0,23.0,28.76,SW,225,3.5,3.5,32,0.00,CLR,CLR,0.00,WeatherDisplay:10.37,2013-01-18 21:22:00,
2013-01-18 15:27:00,51.6,22.7,28.76,SW,225,7.6,7.6,32,0.00,CLR,CLR,0.00,WeatherDisplay:10.37,2013-01-18 21:27:00,
2013-01-18 15:32:00,51.6,22.7,28.73,South,180,10.4,10.4,32,0.00,CLR,CLR,0.00,WeatherDisplay:10.37,2013-01-18 21:32:00,
2013-01-18 15:37:00,51.8,22.8,28.73,South,180,9.2,9.2,32,0.00,CLR,CLR,0.00,WeatherDisplay:10.37,2013-01-18 21:37:00,
2013-01-18 15:42:00,51.8,22.8,28.73,SW,225,5.4,5.4,32,0.00,CLR,CLR,0.00,WeatherDisplay:10.37,2013-01-18 21:42:00,
2013-01-18 15:47:00,51.6,22.7,28.73,SW,225,8.1,8.1,32,0.00,CLR,CLR,0.00,WeatherDisplay:10.37,2013-01-18 21:47:00,
2013-01-18 15:52:00,51.8,22.8,28.73,SSW,202,5.9,5.9,32,0.00,CLR,CLR,0.00,WeatherDisplay:10.37,2013-01-18 21:52:00,
2013-01-18 15:57:00,52.0,23.0,28.73,SW,225,8.1,0.0,32,0.00,CLR,CLR,0.00,WeatherDisplay:10.37,2013-01-18 21:57:00,
2013-01-18 16:02:00,51.8,22.8,28.73,SW,225,7.1,7.1,32,0.00,CLR,CLR,0.00,WeatherDisplay:10.37,2013-01-18 22:02:00,
2013-01-18 16:07:00,51.8,23.6,28.73,SW,225,10.4,10.4,33,0.00,CLR,CLR,0.00,WeatherDisplay:10.37,2013-01-18 22:07:00,
2013-01-18 16:12:00,52.0,23.7,28.73,SSW,202,8.1,8.1,33,0.00,CLR,CLR,0.00,WeatherDisplay:10.37,2013-01-18 22:12:00,
2013-01-18 16:17:00,51.8,22.8,28.73,SW,225,8.1,8.1,32,0.00,CLR,CLR,0.00,WeatherDisplay:10.37,2013-01-18 22:17:00,
2013-01-18 16:22:00,51.6,23.4,28.73,SW,225,4.9,4.9,33,0.00,CLR,CLR,0.00,WeatherDisplay:10.37,2013-01-18 22:22:00,
2013-01-18 16:27:00,51.6,23.4,28.73,SW,225,8.1,8.1,33,0.00,CLR,CLR,0.00,WeatherDisplay:10.37,2013-01-18 22:27:00,
2013-01-18 16:32:00,51.4,23.3,28.73,SW,225,8.1,0.0,33,0.00,CLR,CLR,0.00,WeatherDisplay:10.37,2013-01-18 22:32:00,
2013-01-18 16:37:00,51.1,23.7,28.73,South,180,4.9,4.9,34,0.00,CLR,CLR,0.00,WeatherDisplay:10.37,2013-01-18 22:37:00,
2013-01-18 16:42:00,50.9,23.5,28.73,SW,225,3.5,3.5,34,0.00,CLR,CLR,0.00,WeatherDisplay:10.37,2013-01-18 22:42:00,
2013-01-18 16:47:00,50.9,24.2,28.76,SSW,202,5.8,0.0,35,0.00,CLR,CLR,0.00,WeatherDisplay:10.37,2013-01-18 22:47:00,
2013-01-18 16:52:00,50.5,23.9,28.76,SSW,202,4.6,0.0,35,0.00,CLR,CLR,0.00,WeatherDisplay:10.37,2013-01-18 22:52:00,
2013-01-18 16:57:00,50.5,24.5,28.76,WSW,248,0.0,0.0,36,0.00,CLR,CLR,0.00,WeatherDisplay:10.37,2013-01-18 22:57:00,
2013-01-18 17:02:00,50.4,24.4,28.73,South,180,2.6,0.0,36,0.00,CLR,CLR,0.00,WeatherDisplay:10.37,2013-01-18 23:02:00,
2013-01-18 17:07:00,50.2,24.2,28.73,South,180,0.0,0.0,36,0.00,CLR,CLR,0.00,WeatherDisplay:10.37,2013-01-18 23:07:00,
2013-01-18 17:12:00,49.8,24.6,28.73,SSW,202,3.1,0.0,37,0.00,CLR,CLR,0.00,WeatherDisplay:10.37,2013-01-18 23:12:00,
2013-01-18 17:17:00,49.3,24.1,28.73,South,180,0.0,0.0,37,0.00,CLR,CLR,0.00,WeatherDisplay:10.37,2013-01-18 23:17:00,
2013-01-18 17:22:00,48.9,23.8,28.73,SSW,202,2.6,0.0,37,0.00,CLR,CLR,0.00,WeatherDisplay:10.37,2013-01-18 23:22:00,
2013-01-18 17:27:00,48.6,23.4,28.73,SSW,202,0.0,0.0,37,0.00,CLR,CLR,0.00,WeatherDisplay:10.37,2013-01-18 23:27:00,
2013-01-18 17:32:00,48.2,23.7,28.73,SSW,202,0.0,0.0,38,0.00,CLR,CLR,0.00,WeatherDisplay:10.37,2013-01-18 23:32:00,
2013-01-18 17:37:00,47.8,23.4,28.73,SW,225,0.0,0.0,38,0.00,CLR,CLR,0.00,WeatherDisplay:10.37,2013-01-18 23:37:00,
2013-01-18 17:42:00,47.5,23.7,28.73,SSW,202,0.0,0.0,39,0.00,CLR,CLR,0.00,WeatherDisplay:10.37,2013-01-18 23:42:00,
2013-01-18 17:47:00,47.1,23.4,28.76,SSW,202,0.0,0.0,39,0.00,CLR,CLR,0.00,WeatherDisplay:10.37,2013-01-18 23:47:00,
2013-01-18 17:52:00,46.8,23.7,28.76,SSW,202,0.0,0.0,40,0.00,CLR,CLR,0.00,WeatherDisplay:10.37,2013-01-18 23:52:00,
2013-01-18 17:57:00,46.8,23.7,28.76,SSW,202,0.0,0.0,40,0.00,CLR,CLR,0.00,WeatherDisplay:10.37,2013-01-18 23:57:00,
2013-01-18 18:02:00,46.6,23.5,28.76,SSW,202,0.0,0.0,40,0.00,CLR,CLR,0.00,WeatherDisplay:10.37,2013-01-19 00:02:00,
2013-01-18 18:07:00,46.4,23.4,28.76,SSW,202,0.0,0.0,40,0.00,CLR,CLR,0.00,WeatherDisplay:10.37,2013-01-19 00:07:00,
2013-01-18 18:12:00,46.2,23.8,28.76,SW,225,0.0,0.0,41,0.00,CLR,CLR,0.00,WeatherDisplay:10.37,2013-01-19 00:12:00,
2013-01-18 18:17:00,46.0,23.6,28.73,SSW,202,0.0,0.0,41,0.00,CLR,CLR,0.00,WeatherDisplay:10.37,2013-01-19 00:17:00,
2013-01-18 18:22:00,45.9,23.5,28.73,SW,225,0.0,0.0,41,0.00,CLR,CLR,0.00,WeatherDisplay:10.37,2013-01-19 00:22:00,
2013-01-18 18:27:00,45.3,23.5,28.73,SW,225,0.0,0.0,42,0.00,CLR,CLR,0.00,WeatherDisplay:10.37,2013-01-19 00:27:00,
2013-01-18 18:32:00,45.0,23.2,28.76,SSW,202,0.0,0.0,42,0.00,CLR,CLR,0.00,WeatherDisplay:10.37,2013-01-19 00:32:00,
2013-01-18 18:38:00,44.6,23.5,28.76,SSW,202,0.0,0.0,43,0.00,CLR,CLR,0.00,WeatherDisplay:10.37,2013-01-19 00:38:00,
2013-01-18 18:43:00,44.2,23.7,28.76,SSW,202,0.0,0.0,44,0.00,CLR,CLR,0.00,WeatherDisplay:10.37,2013-01-19 00:43:00,
2013-01-18 18:48:00,43.9,23.9,28.76,SSW,202,0.0,0.0,45,0.00,CLR,CLR,0.00,WeatherDisplay:10.37,2013-01-19 00:48:00,
2013-01-18 18:54:00,43.9,24.4,28.76,SW,225,2.3,0.0,46,0.00,CLR,CLR,0.00,WeatherDisplay:10.37,2013-01-19 00:54:00,
2013-01-18 18:59:00,43.9,24.4,28.76,SSW,202,0.0,0.0,46,0.00,CLR,CLR,0.00,WeatherDisplay:10.37,2013-01-19 00:59:00,
2013-01-18 19:04:00,43.7,24.2,28.76,SSW,202,0.0,0.0,46,0.00,CLR,CLR,0.00,WeatherDisplay:10.37,2013-01-19 01:04:00,
2013-01-18 19:09:00,43.3,24.4,28.76,SW,225,0.0,0.0,47,0.00,CLR,CLR,0.00,WeatherDisplay:10.37,2013-01-19 01:09:00,
2013-01-18 19:14:00,43.3,24.4,28.76,SSW,202,0.0,0.0,47,0.00,CLR,CLR,0.00,WeatherDisplay:10.37,2013-01-19 01:14:00,
2013-01-18 19:19:00,42.8,24.4,28.76,SSW,202,0.0,0.0,48,0.00,CLR,CLR,0.00,WeatherDisplay:10.37,2013-01-19 01:19:00,
2013-01-18 19:24:00,42.6,24.3,28.76,SSW,202,0.0,0.0,48,0.00,CLR,CLR,0.00,WeatherDisplay:10.37,2013-01-19 01:24:00,
2013-01-18 19:29:00,42.4,24.6,28.76,SSW,202,0.0,0.0,49,0.00,CLR,CLR,0.00,WeatherDisplay:10.37,2013-01-19 01:29:00,
2013-01-18 19:34:00,42.4,24.6,28.76,SSW,202,0.0,0.0,49,0.00,CLR,CLR,0.00,WeatherDisplay:10.37,2013-01-19 01:34:00,
2013-01-18 19:39:00,42.3,24.4,28.76,SW,225,0.0,0.0,49,0.00,CLR,CLR,0.00,WeatherDisplay:10.37,2013-01-19 01:39:00,
2013-01-18 19:44:00,41.9,24.1,28.76,SW,225,0.0,0.0,49,0.00,CLR,CLR,0.00,WeatherDisplay:10.37,2013-01-19 01:44:00,
2013-01-18 19:49:00,41.9,24.1,28.76,SW,225,0.0,0.0,49,0.00,CLR,CLR,0.00,WeatherDisplay:10.37,2013-01-19 01:49:00,
2013-01-18 19:54:00,41.7,23.9,28.76,SSW,202,0.0,0.0,49,0.00,CLR,CLR,0.00,WeatherDisplay:10.37,2013-01-19 01:54:00,
2013-01-18 19:59:00,41.2,23.4,28.76,SSW,202,0.0,0.0,49,0.00,CLR,CLR,0.00,WeatherDisplay:10.37,2013-01-19 01:59:00,
2013-01-18 20:05:00,40.8,24.1,28.76,SSW,202,0.0,0.0,51,0.00,CLR,CLR,0.00,WeatherDisplay:10.37,2013-01-19 02:05:00,
2013-01-18 20:10:00,40.5,23.7,28.76,SSW,202,0.0,0.0,51,0.00,CLR,CLR,0.00,WeatherDisplay:10.37,2013-01-19 02:10:00,
2013-01-18 20:15:00,40.3,24.0,28.73,SSW,202,0.0,0.0,52,0.00,CLR,CLR,0.00,WeatherDisplay:10.37,2013-01-19 02:15:00,
2013-01-18 20:20:00,40.3,24.0,28.73,SSW,202,0.0,0.0,52,0.00,CLR,CLR,0.00,WeatherDisplay:10.37,2013-01-19 02:20:00,
2013-01-18 20:25:00,40.1,23.9,28.73,SSW,202,0.0,0.0,52,0.00,CLR,CLR,0.00,WeatherDisplay:10.37,2013-01-19 02:25:00,
2013-01-18 20:30:00,40.1,23.9,28.73,SSW,202,0.0,0.0,52,0.00,CLR,CLR,0.00,WeatherDisplay:10.37,2013-01-19 02:30:00,
2013-01-18 20:35:00,39.9,23.7,28.73,South,180,0.0,0.0,52,0.00,CLR,CLR,0.00,WeatherDisplay:10.37,2013-01-19 02:35:00,
2013-01-18 20:40:00,39.9,23.7,28.73,South,180,0.0,0.0,52,0.00,CLR,CLR,0.00,WeatherDisplay:10.37,2013-01-19 02:40:00,
2013-01-18 20:45:00,39.9,23.7,28.73,SSW,202,2.6,0.0,52,0.00,CLR,CLR,0.00,WeatherDisplay:10.37,2013-01-19 02:45:00,
2013-01-18 20:50:00,39.9,23.7,28.73,SSW,202,0.0,0.0,52,0.00,CLR,CLR,0.00,WeatherDisplay:10.37,2013-01-19 02:50:00,
2013-01-18 20:55:00,39.7,23.1,28.73,SSW,202,0.0,0.0,51,0.00,CLR,CLR,0.00,WeatherDisplay:10.37,2013-01-19 02:55:00,
2013-01-18 21:00:00,39.7,23.1,28.73,South,180,0.0,0.0,51,0.00,CLR,CLR,0.00,WeatherDisplay:10.37,2013-01-19 03:00:00,
2013-01-18 21:05:00,39.9,23.2,28.73,SSW,202,0.0,0.0,51,0.00,CLR,CLR,0.00,WeatherDisplay:10.37,2013-01-19 03:05:00,
2013-01-18 21:10:00,39.9,23.2,28.73,SSW,202,0.0,0.0,51,0.00,CLR,CLR,0.00,WeatherDisplay:10.37,2013-01-19 03:10:00,
2013-01-18 21:15:00,39.9,22.8,28.73,SSW,202,0.0,0.0,50,0.00,CLR,CLR,0.00,WeatherDisplay:10.37,2013-01-19 03:15:00,
2013-01-18 21:20:00,39.7,22.6,28.73,South,180,0.0,0.0,50,0.00,CLR,CLR,0.00,WeatherDisplay:10.37,2013-01-19 03:20:00,
2013-01-18 21:25:00,39.7,22.6,28.73,SSW,202,0.0,0.0,50,0.00,CLR,CLR,0.00,WeatherDisplay:10.37,2013-01-19 03:25:00,
2013-01-18 21:30:00,39.6,22.4,28.73,SSW,202,0.0,0.0,50,0.00,CLR,CLR,0.00,WeatherDisplay:10.37,2013-01-19 03:30:00,
2013-01-18 21:35:00,39.4,22.3,28.73,SSW,202,0.0,0.0,50,0.00,CLR,CLR,0.00,WeatherDisplay:10.37,2013-01-19 03:35:00,
2013-01-18 21:40:00,39.4,22.3,28.73,SSW,202,0.0,0.0,50,0.00,CLR,CLR,0.00,WeatherDisplay:10.37,2013-01-19 03:40:00,
2013-01-18 21:45:00,39.4,22.7,28.73,SSW,202,0.0,0.0,51,0.00,CLR,CLR,0.00,WeatherDisplay:10.37,2013-01-19 03:45:00,
2013-01-18 21:50:00,39.2,22.6,28.73,South,180,0.0,0.0,51,0.00,CLR,CLR,0.00,WeatherDisplay:10.37,2013-01-19 03:50:00,
2013-01-18 21:55:00,39.2,22.6,28.73,South,180,0.0,0.0,51,0.00,CLR,CLR,0.00,WeatherDisplay:10.37,2013-01-19 03:55:00,
2013-01-18 22:00:00,39.0,22.4,28.73,SSW,202,0.0,0.0,51,0.00,CLR,CLR,0.00,WeatherDisplay:10.37,2013-01-19 04:00:00,
2013-01-18 22:05:00,39.0,22.9,28.73,SSW,202,0.0,0.0,52,0.00,CLR,CLR,0.00,WeatherDisplay:10.37,2013-01-19 04:05:00,
2013-01-18 22:10:00,38.8,22.7,28.73,SSW,202,0.0,0.0,52,0.00,CLR,CLR,0.00,WeatherDisplay:10.37,2013-01-19 04:10:00,
2013-01-18 22:15:00,38.8,22.7,28.73,SSW,202,0.0,0.0,52,0.00,CLR,CLR,0.00,WeatherDisplay:10.37,2013-01-19 04:15:00,
2013-01-18 22:20:00,38.8,22.7,28.73,SSW,202,0.0,0.0,52,0.00,CLR,CLR,0.00,WeatherDisplay:10.37,2013-01-19 04:20:00,
2013-01-18 22:25:00,38.7,22.5,28.73,SSW,202,0.0,0.0,52,0.00,CLR,CLR,0.00,WeatherDisplay:10.37,2013-01-19 04:25:00,
2013-01-18 22:30:00,38.5,22.4,28.70,SSW,202,0.0,0.0,52,0.00,CLR,CLR,0.00,WeatherDisplay:10.37,2013-01-19 04:30:00,
2013-01-18 22:35:00,38.1,22.5,28.70,SSW,202,3.5,0.0,53,0.00,CLR,CLR,0.00,WeatherDisplay:10.37,2013-01-19 04:35:00,
2013-01-18 22:40:00,37.9,22.3,28.70,South,180,0.0,0.0,53,0.00,CLR,CLR,0.00,WeatherDisplay:10.37,2013-01-19 04:40:00,
2013-01-18 22:45:00,37.6,22.4,28.70,SSW,202,0.0,0.0,54,0.00,CLR,CLR,0.00,WeatherDisplay:10.37,2013-01-19 04:45:00,
2013-01-18 22:50:00,37.8,22.6,28.70,South,180,0.0,0.0,54,0.00,CLR,CLR,0.00,WeatherDisplay:10.37,2013-01-19 04:50:00,
2013-01-18 22:55:00,37.9,22.8,28.70,South,180,2.3,0.0,54,0.00,CLR,CLR,0.00,WeatherDisplay:10.37,2013-01-19 04:55:00,
2013-01-18 23:01:00,37.8,22.6,28.70,SSW,202,0.0,0.0,54,0.00,CLR,CLR,0.00,WeatherDisplay:10.37,2013-01-19 05:01:00,
2013-01-18 23:03:00,37.8,22.6,28.70,South,180,0.0,0.0,54,0.00,CLR,CLR,0.00,WeatherDisplay:10.37,2013-01-19 05:03:00,
2013-01-18 23:08:00,37.4,22.3,28.70,SSW,202,0.0,0.0,54,0.00,CLR,CLR,0.00,WeatherDisplay:10.37,2013-01-19 05:08:00,
2013-01-18 23:13:00,37.4,22.3,28.70,SSW,202,0.0,0.0,54,0.00,CLR,CLR,0.00,WeatherDisplay:10.37,2013-01-19 05:13:00,
2013-01-18 23:18:00,37.2,22.5,28.70,SW,225,0.0,0.0,55,0.00,CLR,CLR,0.00,WeatherDisplay:10.37,2013-01-19 05:18:00,
2013-01-18 23:19:00,37.2,22.5,28.70,SSW,202,0.0,0.0,55,0.00,CLR,CLR,0.00,WeatherDisplay:10.37,2013-01-19 05:19:00,
2013-01-18 23:24:00,37.0,22.4,28.70,South,180,0.0,0.0,55,0.00,CLR,CLR,0.00,WeatherDisplay:10.37,2013-01-19 05:24:00,
2013-01-18 23:29:00,37.2,22.5,28.70,South,180,0.0,0.0,55,0.00,CLR,CLR,0.00,WeatherDisplay:10.37,2013-01-19 05:29:00,
2013-01-18 23:34:00,37.0,22.4,28.70,SSW,202,0.0,0.0,55,0.00,CLR,CLR,0.00,WeatherDisplay:10.37,2013-01-19 05:34:00,
2013-01-18 23:39:00,37.0,22.8,28.70,South,180,0.0,0.0,56,0.00,CLR,CLR,0.00,WeatherDisplay:10.37,2013-01-19 05:39:00,
2013-01-18 23:44:00,36.9,22.6,28.70,SSW,202,0.0,0.0,56,0.00,CLR,CLR,0.00,WeatherDisplay:10.37,2013-01-19 05:44:00,
2013-01-18 23:49:00,37.0,22.8,28.70,SSW,202,0.0,0.0,56,0.00,CLR,CLR,0.00,WeatherDisplay:10.37,2013-01-19 05:49:00,
2013-01-18 23:54:00,37.0,22.8,28.70,South,180,0.0,0.0,56,0.00,CLR,CLR,0.00,WeatherDisplay:10.37,2013-01-19 05:54:00,
2013-01-18 23:59:00,37.0,22.4,28.67,South,180,0.0,0.0,55,0.00,CLR,CLR,0.00,WeatherDisplay:10.37,2013-01-19 05:59:00,